GW7165 Weather Reports


time (UTC)temp
F
wind
direction
speed
knots
gust
knots
rain 1hr
in
rain 24hr
in
rain mn
in
humidity
%
barometer
mb
20260506165335 55 44 0.9 1.7 0.00 0.07 0.07 88 1013.5
20260506164831 55 100 0.9 1.7 0.00 0.07 0.07 88 1013.5
20260506164327 55 37 1.7 2.6 0.00 0.07 0.07 88 1013.2
20260506163825 55 37 3.5 5.2 0.00 0.07 0.07 88 1013.0
20260506163319 55 262 5.2 7.0 0.00 0.07 0.07 88 1013.1
20260506162815 55 87 3.5 7.0 0.00 0.07 0.07 88 1013.4
20260506162313 55 12 1.7 1.7 0.00 0.07 0.07 88 1013.5
20260506161810 55 51 0.9 1.7 0.00 0.07 0.07 88 1013.1
20260506161308 55 4 1.7 1.7 0.00 0.07 0.07 89 1013.3
20260506160805 55 55 1.7 2.6 0.00 0.07 0.07 90 1013.4
20260506160302 55 228 1.7 1.7 0.00 0.07 0.07 91 1013.7
20260506155801 55 104 0.9 0.9 0.00 0.07 0.07 91 1013.8
20260506155257 54 51 0.9 0.9 0.00 0.07 0.07 91 1013.8
20260506153410 54 11 0.9 1.7 0.00 0.07 0.07 92 1012.6
20260506152907 54 89 2.6 4.3 0.07 0.07 0.07 91 1013.1
20260506152404 54 318 5.2 6.1 0.07 0.07 0.07 90 1013.4
20260506151902 54 358 3.5 4.3 0.12 0.06 0.06 90 1014.5
20260506151359 54 230 0.9 0.9 0.35 0.06 0.06 89 1014.1
20260506150856 54 32 2.6 4.3 0.24 0.04 0.04 87 1013.9
20260506150352 55 294 1.7 1.7 0.00 0.00 0.00 85 1014.8
20260506145849 55 232 0.9 1.7 0.00 0.00 0.00 85 1014.7
20260506145345 55 275 1.7 1.7 0.00 0.00 0.00 84 1015.2
20260506144843 55 194 1.7 2.6 0.00 0.00 0.00 84 1014.7
20260506144339 55 220 1.7 1.7 0.00 0.00 0.00 83 1014.7
20260506143838 55 293 6.1 7.0 0.00 0.00 0.00 82 1015.2
20260506143335 55 218 0.9 1.7 0.00 0.00 0.00 82 1013.1
20260506142833 55 70 0.9 0.9 0.00 0.00 0.00 82 1012.8
20260506142331 55 78 1.7 2.6 0.00 0.00 0.00 82 1013.5
20260506141829 55 303 3.5 5.2 0.00 0.00 0.00 82 1013.2
20260506141327 55 313 5.2 7.0 0.00 0.00 0.00 82 1013.7
20260506140824 55 216 0.9 0.9 0.00 0.00 0.00 82 1013.5
20260506140321 55 348 1.7 2.6 0.00 0.00 0.00 82 1013.2
20260506135818 55 196 0.9 1.7 0.00 0.00 0.00 82 1013.4
20260506135314 55 359 1.7 4.3 0.00 0.00 0.00 82 1013.5
20260506134811 55 294 4.3 5.2 0.00 0.00 0.00 82 1012.9
20260506134308 55 252 2.6 6.1 0.00 0.00 0.00 81 1012.6
20260506133804 55 32 3.5 5.2 0.00 0.00 0.00 81 1012.8
20260506133301 55 32 2.6 4.3 0.00 0.00 0.00 81 1012.6
20260506132758 55 238 2.6 4.3 0.00 0.00 0.00 80 1012.6
20260506132255 55 323 1.7 1.7 0.00 0.00 0.00 79 1012.6
20260506131753 55 9 1.7 2.6 0.00 0.00 0.00 79 1012.6
20260506131249 55 46 2.6 2.6 0.00 0.00 0.00 78 1012.3
20260506130746 55 333 2.6 6.1 0.00 0.00 0.00 78 1012.2
20260506130243 55 290 3.5 5.2 0.00 0.00 0.00 77 1012.0
20260506125741 56 317 2.6 5.2 0.00 0.00 0.00 77 1012.0
20260506125238 56 348 1.7 2.6 0.00 0.00 0.00 77 1012.1
20260506124737 56 331 4.3 6.1 0.00 0.00 0.00 77 1012.1
20260506124234 56 288 4.3 8.7 0.00 0.00 0.00 76 1012.2
20260506123731 56 324 2.6 5.2 0.00 0.00 0.00 77 1012.2
20260506123230 56 79 0.0 0.9 0.00 0.00 0.00 77 1011.9
20260506122726 56 31 1.7 2.6 0.00 0.00 0.00 77 1012.1
20260506122223 56 346 5.2 7.8 0.00 0.00 0.00 76 1011.7
20260506121722 56 88 0.9 1.7 0.00 0.00 0.00 77 1011.6
20260506121218 56 298 2.6 4.3 0.00 0.00 0.00 77 1011.8
20260506120716 56 17 0.9 2.6 0.00 0.00 0.00 77 1011.7
20260506120213 57 43 5.2 7.0 0.00 0.00 0.00 77 1011.5
20260506115711 57 269 1.7 1.7 0.00 0.00 0.00 76 1011.6
20260506115209 57 306 3.5 4.3 0.00 0.00 0.00 76 1011.7
20260506114706 57 318 5.2 6.1 0.00 0.00 0.00 76 1011.4
20260506114204 57 286 1.7 4.3 0.00 0.00 0.00 76 1011.6
20260506113703 57 60 2.6 5.2 0.00 0.00 0.00 76 1011.3
20260506113159 57 32 2.6 2.6 0.00 0.00 0.00 76 1011.0
20260506112655 57 166 0.0 0.9 0.00 0.00 0.00 76 1011.0
20260506112153 57 328 1.7 1.7 0.00 0.00 0.00 76 1010.7
20260506111650 57 1 0.9 0.9 0.00 0.00 0.00 77 1010.6
20260506111148 57 70 0.9 0.9 0.00 0.00 0.00 77 1010.7
20260506110646 57 357 2.6 4.3 0.00 0.00 0.00 77 1011.0
20260506110143 57 10 3.5 6.1 0.00 0.00 0.00 77 1010.8
20260506105639 58 58 0.9 1.7 0.00 0.00 0.00 77 1010.5
20260506105136 58 284 4.3 5.2 0.00 0.00 0.00 77 1010.6
20260506104634 58 242 2.6 2.6 0.00 0.00 0.00 77 1010.4
20260506104131 58 259 0.9 2.6 0.00 0.00 0.00 77 1010.5
20260506103629 59 25 5.2 8.7 0.00 0.00 0.00 76 1010.2
20260506103125 59 219 2.6 4.3 0.00 0.00 0.00 76 1010.1
20260506102624 59 72 3.5 5.2 0.00 0.00 0.00 76 1010.1
20260506102121 59 53 2.6 4.3 0.00 0.00 0.00 76 1009.7
20260506101617 59 351 1.7 1.7 0.00 0.00 0.00 77 1009.8
20260506101114 59 86 1.7 2.6 0.00 0.00 0.00 77 1009.7
20260506100613 59 7 2.6 4.3 0.00 0.00 0.00 77 1009.5
20260506100110 59 358 1.7 2.6 0.00 0.00 0.00 77 1009.7
20260506095609 59 14 1.7 1.7 0.00 0.00 0.00 77 1009.5
20260506095105 59 53 4.3 7.0 0.00 0.00 0.00 76 1009.6
20260506094603 59 329 4.3 6.1 0.00 0.00 0.00 77 1009.4
20260506094100 59 227 0.9 1.7 0.00 0.00 0.00 77 1009.5
20260506093558 59 284 0.9 1.7 0.00 0.00 0.00 77 1009.5
20260506093055 59 355 2.6 2.6 0.00 0.00 0.00 77 1009.5
20260506092553 59 340 0.9 1.7 0.00 0.00 0.00 77 1009.4
20260506092050 59 158 0.0 0.9 0.00 0.00 0.00 77 1009.3
20260506091548 59 235 1.7 1.7 0.00 0.00 0.00 77 1009.3
20260506091045 59 218 1.7 2.6 0.00 0.00 0.00 77 1009.3
20260506090543 60 207 0.9 0.9 0.00 0.00 0.00 76 1009.4
20260506090039 60 324 1.7 1.7 0.00 0.00 0.00 76 1009.3
20260506085536 60 83 0.9 0.9 0.00 0.00 0.00 77 1009.2
20260506085032 60 78 0.9 1.7 0.00 0.00 0.00 76 1009.5
20260506084530 60 313 0.9 0.9 0.00 0.00 0.00 77 1009.1
20260506084025 60 12 5.2 6.1 0.00 0.00 0.00 76 1009.1
20260506083523 60 17 3.5 4.3 0.00 0.00 0.00 77 1009.2
20260506083020 60 5 1.7 1.7 0.00 0.00 0.00 77 1009.2
20260506082517 60 173 1.7 2.6 0.00 0.00 0.00 76 1009.2
20260506082012 61 26 1.7 2.6 0.00 0.00 0.00 76 1009.0
20260506081511 61 129 0.0 0.0 0.00 0.00 0.00 76 1008.8
20260506081008 61 281 1.7 2.6 0.00 0.00 0.00 77 1008.7
20260506080505 61 294 2.6 2.6 0.00 0.00 0.00 77 1008.5
20260506073449 62 53 1.7 1.7 0.00 0.00 0.00 78 1008.6
20260506072946 62 54 2.6 4.3 0.00 0.00 0.00 77 1008.9
20260506072443 62 61 0.0 0.0 0.00 0.00 0.00 77 1008.7
20260506071941 62 73 0.0 0.0 0.00 0.00 0.00 77 1008.6
20260506071439 62 121 2.6 4.3 0.00 0.00 0.00 78 1009.0
20260506070935 62 103 0.0 0.0 0.00 0.00 0.00 78 1008.8
20260506070432 62 86 3.5 5.2 0.00 0.00 0.00 78 1008.9
20260506062410 63 267 1.7 1.7 0.00 0.00 0.00 78 1008.6
20260506061906 63 22 2.6 4.3 0.00 0.00 0.00 78 1008.5
20260506061402 63 327 1.7 4.3 0.00 0.00 0.00 78 1008.6
20260506060900 63 35 5.2 6.1 0.00 0.00 0.00 78 1008.6
20260506060358 63 82 3.5 7.0 0.00 0.00 0.00 78 1008.6
20260506051330 65 9 0.9 1.7 0.00 0.00 0.00 77 1008.8
20260506050828 65 357 2.6 4.3 0.00 0.00 0.00 76 1008.7
20260506050325 66 87 1.7 1.7 0.00 0.00 0.00 76 1008.5
20260506044815 66 342 0.9 2.6 0.00 0.00 0.00 77 1008.6
20260506044313 67 56 2.6 4.3 0.00 0.00 0.00 77 1008.2
20260506043810 67 31 6.1 7.8 0.00 0.00 0.00 76 1008.6
20260506043307 68 318 2.6 5.2 0.00 0.00 0.00 76 1008.5
20260506042806 68 251 1.7 2.6 0.00 0.00 0.00 76 1008.5
20260506042305 68 269 2.6 4.3 0.00 0.00 0.00 75 1008.0
20260506041803 69 1 4.3 7.0 0.00 0.00 0.00 75 1008.5
20260506041259 69 76 1.7 2.6 0.00 0.00 0.00 74 1008.6
20260506040756 69 143 0.0 0.9 0.00 0.00 0.00 74 1008.2
20260506040254 69 106 0.0 0.0 0.00 0.00 0.00 74 1007.9
20260506035750 69 47 1.7 1.7 0.00 0.00 0.00 74 1007.9
20260506035247 69 44 0.0 0.9 0.00 0.00 0.00 74 1007.4
20260506034744 69 58 0.9 0.9 0.00 0.00 0.00 73 1007.4
20260506034241 69 10 5.2 7.0 0.00 0.00 0.00 73 1007.6
20260506033738 69 354 4.3 5.2 0.00 0.00 0.00 73 1007.6
20260506033236 69 292 1.7 1.7 0.00 0.00 0.00 73 1007.4
20260506032732 70 345 6.1 8.7 0.00 0.00 0.00 72 1007.4
20260506032229 70 246 1.7 2.6 0.00 0.00 0.00 72 1007.3
20260506031726 70 328 2.6 5.2 0.00 0.00 0.00 71 1007.1
20260506031223 70 150 0.0 0.9 0.00 0.00 0.00 71 1007.3
20260506030721 70 125 0.9 1.7 0.00 0.00 0.00 70 1007.2
20260506030219 70 161 0.0 0.9 0.00 0.00 0.00 70 1006.9
20260506025715 71 344 1.7 2.6 0.00 0.00 0.00 70 1006.8
20260506025212 71 356 4.3 6.1 0.00 0.00 0.00 69 1007.0
20260506024709 71 248 0.0 0.0 0.00 0.00 0.00 69 1006.9
20260506024205 72 310 3.5 5.2 0.00 0.00 0.00 69 1006.7
20260506023701 72 81 0.0 0.0 0.00 0.00 0.00 69 1006.6
20260506023159 72 281 1.7 4.3 0.00 0.00 0.00 69 1006.3
20260506022656 73 344 0.0 0.0 0.00 0.00 0.00 69 1006.3
20260506022153 73 246 0.0 0.0 0.00 0.00 0.00 68 1006.1
20260506021651 73 45 0.0 0.9 0.00 0.00 0.00 68 1006.1
20260506021148 73 307 0.9 1.7 0.00 0.00 0.00 68 1005.8
20260506020645 74 308 2.6 4.3 0.00 0.00 0.00 68 1005.7
20260506020143 74 252 1.7 1.7 0.00 0.00 0.00 68 1005.1
20260506015640 74 350 3.5 5.2 0.00 0.00 0.00 67 1005.6
20260506015137 74 155 0.0 0.9 0.00 0.00 0.00 67 1005.4
20260506014635 74 68 0.0 0.9 0.00 0.00 0.00 67 1005.3
20260506014130 74 45 0.9 0.9 0.00 0.00 0.00 67 1005.0
20260506013629 74 120 0.0 0.9 0.00 0.00 0.00 67 1005.3
20260506013125 75 315 0.9 2.6 0.00 0.00 0.00 67 1005.2
20260506012621 75 325 3.5 6.1 0.00 0.00 0.00 67 1004.9
20260506012118 76 38 3.5 4.3 0.00 0.00 0.00 66 1004.6
20260506011616 76 343 0.0 0.9 0.00 0.00 0.00 66 1004.8
20260506011112 77 88 0.0 1.7 0.00 0.00 0.00 65 1004.8
20260506010611 78 332 4.3 6.1 0.00 0.00 0.00 64 1005.1
20260506010108 78 27 3.5 4.3 0.00 0.00 0.00 63 1004.6
20260506005605 79 329 2.6 4.3 0.00 0.00 0.00 63 1004.7
20260506005101 79 340 0.0 0.0 0.00 0.00 0.00 63 1004.4
20260506004558 79 60 1.7 1.7 0.00 0.00 0.00 62 1004.5
20260506004055 79 342 1.7 2.6 0.00 0.00 0.00 62 1004.5
20260506003551 79 358 2.6 4.3 0.00 0.00 0.00 62 1004.3
20260506003047 80 32 0.9 2.6 0.00 0.00 0.00 62 1004.5
20260506002543 80 229 0.9 1.7 0.00 0.00 0.00 62 1004.5
20260506002039 81 49 0.9 1.7 0.00 0.00 0.00 61 1004.4
20260506001536 81 329 2.6 5.2 0.00 0.00 0.00 60 1004.2
20260506001033 82 219 1.7 2.6 0.00 0.00 0.00 59 1003.8
20260506000530 82 343 0.9 0.9 0.00 0.00 0.00 59 1004.2
20260506000028 83 230 0.0 0.9 0.00 0.00 0.00 59 1004.2
20260505235526 83 58 0.0 0.9 0.00 0.00 0.00 59 1003.7
20260505235022 83 312 1.7 2.6 0.00 0.00 0.00 58 1003.8
20260505234519 84 355 0.9 1.7 0.00 0.00 0.00 57 1003.7
20260505234016 85 331 2.6 4.3 0.00 0.00 0.00 55 1003.7
20260505233514 86 302 2.6 2.6 0.00 0.00 0.00 53 1003.6
20260505233011 86 187 0.0 0.0 0.00 0.00 0.00 51 1003.3
20260505232509 86 328 0.0 0.0 0.00 0.00 0.00 50 1003.5
20260505232006 86 176 0.9 1.7 0.00 0.00 0.00 50 1003.3
20260505231503 88 293 2.6 4.3 0.00 0.00 0.00 49 1003.3
20260505231001 89 358 3.5 4.3 0.00 0.00 0.00 59 1003.1
20260505230458 89 241 0.9 0.9 0.00 0.00 0.00 59 1003.0
20260505225954 89 162 0.9 1.7 0.00 0.00 0.00 58 1002.6
20260505225452 89 121 0.0 0.0 0.00 0.00 0.00 58 1002.5
20260505224948 90 126 0.0 0.9 0.00 0.00 0.00 57 1002.4
20260505224445 91 143 0.0 0.0 0.00 0.00 0.00 57 1002.2
20260505223942 93 181 0.0 0.9 0.00 0.00 0.00 52 1002.6
20260505223439 93 151 0.0 0.0 0.00 0.00 0.00 49 1002.7
20260505222935 94 145 0.0 0.0 0.00 0.00 0.00 47 1002.4
20260505222431 93 149 0.0 0.0 0.00 0.00 0.00 48 1002.4
20260505221927 93 268 0.0 0.9 0.00 0.00 0.00 48 1002.5
20260505221425 93 173 0.0 0.0 0.00 0.00 0.00 49 1002.5
20260505220922 92 145 0.0 0.0 0.00 0.00 0.00 48 1002.4
20260505220419 93 123 2.6 2.6 0.00 0.00 0.00 49 1002.4
20260505215916 93 161 0.9 1.7 0.00 0.00 0.00 48 1002.4
20260505215414 93 147 0.0 0.0 0.00 0.00 0.00 49 1002.5
20260505214912 93 142 0.0 0.0 0.00 0.00 0.00 50 1002.3
20260505214409 93 147 0.9 1.7 0.00 0.00 0.00 49 1002.6
20260505213907 91 133 0.0 0.9 0.00 0.00 0.00 52 1002.8
20260505213404 92 72 0.0 0.0 0.00 0.00 0.00 50 1002.5
20260505212900 92 129 0.9 1.7 0.00 0.00 0.00 51 1002.5
20260505212357 92 126 0.0 0.9 0.00 0.00 0.00 50 1002.7
20260505211853 91 152 0.9 1.7 0.00 0.00 0.00 52 1002.8
20260505211351 91 204 0.9 2.6 0.00 0.00 0.00 51 1002.8
20260505210847 91 143 0.9 1.7 0.00 0.00 0.00 52 1003.1
20260505210344 91 131 0.9 1.7 0.00 0.00 0.00 53 1002.8
20260505205841 91 143 0.0 0.0 0.00 0.00 0.00 54 1003.2
20260505205340 91 140 0.9 1.7 0.00 0.00 0.00 53 1003.2
20260505204836 91 118 2.6 4.3 0.00 0.00 0.00 53 1003.1
20260505204334 90 204 0.9 0.9 0.00 0.00 0.00 55 1002.8
20260505203831 91 133 0.0 0.0 0.00 0.00 0.00 55 1003.1
20260505203327 90 106 0.9 1.7 0.00 0.00 0.00 55 1003.4
20260505202824 90 133 0.9 1.7 0.00 0.00 0.00 55 1003.2
20260505202320 90 100 0.9 2.6 0.00 0.00 0.00 55 1003.5
20260505201817 91 196 0.9 1.7 0.00 0.00 0.00 54 1003.3
20260505201314 91 164 0.9 4.3 0.00 0.00 0.00 54 1003.7
20260505200813 90 208 1.7 4.3 0.00 0.00 0.00 56 1003.8
20260505200309 89 112 0.0 0.0 0.00 0.00 0.00 56 1003.7
20260505195804 90 333 1.7 2.6 0.00 0.00 0.00 56 1003.8
20260505195305 89 165 0.0 0.9 0.00 0.00 0.00 60 1003.7
20260505194759 90 127 1.7 2.6 0.00 0.00 0.00 58 1003.9
20260505194256 89 184 0.0 0.9 0.00 0.00 0.00 58 1003.9
20260505193757 89 162 2.6 4.3 0.00 0.00 0.00 57 1003.6
20260505193255 89 342 0.9 1.7 0.00 0.00 0.00 59 1003.8
20260505192753 88 158 1.7 4.3 0.00 0.00 0.00 60 1003.8
20260505192250 87 176 0.0 0.9 0.00 0.00 0.00 62 1003.8
20260505191748 88 158 0.0 1.7 0.00 0.00 0.00 62 1003.9
20260505191246 88 103 2.6 5.2 0.00 0.00 0.00 61 1003.8
20260505190742 87 159 0.9 1.7 0.00 0.00 0.00 63 1003.7
20260505190237 87 122 0.0 0.0 0.00 0.00 0.00 62 1003.8
20260505185734 88 205 1.7 4.3 0.00 0.00 0.00 62 1003.7
20260505185231 86 139 4.3 5.2 0.00 0.00 0.00 63 1004.0
20260505184726 87 144 1.7 2.6 0.00 0.00 0.00 63 1003.8
20260505184224 87 127 0.0 0.0 0.00 0.00 0.00 63 1004.1
20260505183720 86 178 0.9 1.7 0.00 0.00 0.00 64 1004.2
20260505183218 87 126 0.0 0.0 0.00 0.00 0.00 62 1003.9
20260505182714 86 240 0.0 0.9 0.00 0.00 0.00 63 1004.0
20260505182211 86 161 2.6 4.3 0.00 0.00 0.00 64 1004.4
20260505181708 85 126 0.0 0.0 0.00 0.00 0.00 66 1004.2
20260505181206 85 230 0.0 0.0 0.00 0.00 0.00 64 1004.2
20260505180701 85 160 3.5 5.2 0.00 0.00 0.00 65 1004.0
20260505180159 86 149 1.7 6.1 0.00 0.00 0.00 65 1004.0
20260505175654 85 304 0.0 0.9 0.00 0.00 0.00 65 1004.3
20260505175151 85 163 0.0 0.0 0.00 0.00 0.00 67 1004.3
20260505174648 85 157 1.7 2.6 0.00 0.00 0.00 66 1004.3
20260505174144 85 208 0.9 0.9 0.00 0.00 0.00 66 1004.3
20260505173641 84 225 1.7 2.6 0.00 0.00 0.00 67 1004.1
20260505173137 84 87 3.5 6.1 0.00 0.00 0.00 66 1004.6
20260505172635 83 213 0.9 1.7 0.00 0.00 0.00 68 1004.5
20260505172132 83 106 1.7 2.6 0.00 0.00 0.00 68 1004.3
20260505171631 83 78 2.6 4.3 0.00 0.00 0.00 67 1004.2
20260505171129 83 118 1.7 5.2 0.00 0.00 0.00 68 1004.2
20260505170626 83 125 1.7 5.2 0.00 0.00 0.00 67 1004.2
20260505170122 84 290 0.9 2.6 0.00 0.00 0.00 66 1004.4
20260505165617 83 210 0.9 1.7 0.00 0.00 0.00 68 1004.3